Lapse_Rate
6.7 6.7 6.7 6.6 6.5 6.3 6.1 5.8 5.5 5.0 4.8 5.0 4.9 5.3 4.9 5.2 5.1 5.2 5.2 5.2 5.4 5.2 5.1 4.8 4.8 5.0 5.2 5.3 5.5 5.8 6.0 6.0 6.0 6.1 6.2 6.1 6.1 6.0
6.8 6.9 6.9 6.8 6.7 6.5 6.2 6.1 5.8 5.7 5.5 4.5 5.1 4.9 5.1 4.9 5.3 5.0 5.0 5.0 5.3 5.4 5.2 5.0 4.9 5.1 5.3 5.4 5.6 6.0 6.4 6.4 6.3 6.3 6.4 6.3 6.2 6.1
7.0 7.0 7.0 6.7 6.5 6.5 6.5 6.3 6.2 5.8 5.5 5.4 5.1 5.7 5.6 5.0 5.0 5.0 5.0 5.2 5.5 5.5 5.2 5.2 5.1 5.1 5.2 5.4 5.7 6.0 6.3 6.4 6.5 6.7 6.6 6.6 6.6 6.5
7.1 7.1 7.3 7.2 7.1 6.9 6.7 6.6 6.5 6.1 5.7 5.9 5.2 5.5 5.6 5.8 5.3 5.1 5.1 4.9 4.5 5.1 5.2 5.2 5.2 4.9 5.1 5.5 5.9 6.2 6.5 6.5 6.5 6.3 6.5 6.8 6.8 6.8
7.3 7.3 7.3 7.3 7.3 7.0 6.9 6.9 6.6 6.4 6.4 6.1 5.9 5.9 5.8 5.6 5.5 5.3 5.4 5.6 5.0 4.8 4.9 5.2 5.2 5.1 5.5 5.9 6.2 6.5 6.9 6.9 6.6 6.5 6.5 6.7 6.6 6.6
7.4 7.4 7.5 7.4 7.3 7.3 7.2 7.1 6.8 6.8 6.6 6.6 6.3 6.0 5.7 5.6 5.6 5.3 5.4 5.5 4.8 4.6 4.5 4.0 5.2 5.4 5.6 6.1 6.5 6.8 6.8 6.9 6.8 6.9 6.9 6.8 6.9 6.7
7.6 7.4 7.2 7.3 7.4 7.1 7.3 7.3 7.1 7.1 6.7 6.5 6.7 6.4 6.1 5.0 5.0 5.2 5.2 4.7 4.7 4.4 4.6 5.1 4.4 4.5 5.1 6.1 5.9 6.2 6.8 7.1 7.2 7.1 7.1 7.1 7.0 6.9
7.3 7.4 7.2 7.2 7.4 7.3 7.3 7.3 7.4 7.2 6.9 6.5 6.4 6.5 6.4 6.1 6.1 6.0 5.5 5.1 5.1 4.6 4.8 5.3 5.3 4.9 4.7 5.4 5.9 6.3 6.5 6.6 6.6 6.8 6.8 6.9 7.1 7.1
7.5 7.4 7.4 7.3 7.5 7.6 7.5 7.4 7.6 7.4 7.2 6.9 6.9 6.5 6.2 6.2 6.3 6.1 5.6 5.5 5.4 5.0 5.2 5.3 5.4 5.6 6.2 6.2 6.5 6.7 6.8 6.9 6.9 7.0 7.0 6.9 7.1 7.1
7.5 7.6 7.6 7.5 7.5 7.6 7.5 7.4 7.4 7.5 7.4 6.9 6.8 7.0 6.7 6.5 6.2 6.1 6.0 5.8 5.5 5.4 5.5 5.7 5.9 6.1 6.5 6.6 6.5 6.7 7.0 6.9 7.0 6.9 7.0 7.0 7.2 7.3
7.7 7.8 7.6 7.6 7.6 7.6 7.6 7.4 7.2 7.4 7.6 7.3 6.8 7.0 7.2 7.1 6.6 6.4 6.0 5.9 5.9 5.6 5.4 5.8 6.2 6.1 6.6 6.7 6.4 6.7 7.1 7.0 7.1 6.9 7.0 7.0 7.1 7.2
8.1 7.9 8.0 7.9 7.7 7.7 7.7 7.6 7.4 7.6 7.6 7.6 6.9 6.9 7.2 7.2 7.0 6.8 6.2 5.8 5.8 5.5 5.4 5.4 5.6 5.6 6.5 6.7 6.5 6.8 7.0 6.9 7.0 7.0 7.1 7.2 7.2 7.2
8.5 8.5 8.2 8.4 8.3 8.1 8.1 7.9 7.6 7.6 7.5 7.7 7.5 7.4 6.8 6.8 6.9 6.4 6.6 5.9 6.0 5.6 5.9 6.1 6.0 6.0 6.5 6.6 6.6 6.8 6.8 6.8 6.9 6.9 6.8 6.9 7.0 6.9
8.4 8.5 8.3 8.2 8.1 8.4 8.3 8.0 7.4 7.0 6.9 7.1 6.8 6.8 7.2 7.0 6.8 6.4 6.2 5.9 6.0 5.5 5.8 6.0 6.1 6.3 6.7 6.6 6.7 6.8 6.9 6.8 6.8 6.9 6.9 6.9 6.9 6.9
8.2 8.1 8.0 8.3 8.0 7.4 7.7 7.8 7.5 6.7 6.6 6.7 6.4 6.3 7.0 6.7 6.5 6.6 6.0 6.0 5.9 5.7 5.6 6.1 6.2 6.4 6.6 6.8 6.8 6.8 6.8 6.9 6.8 6.8 6.8 6.9 6.9 7.0
8.3 7.9 7.2 7.1 7.7 8.2 8.1 7.1 6.7 7.1 6.6 6.4 6.2 5.9 5.9 5.3 6.1 5.9 5.9 6.1 5.8 5.5 5.8 6.3 6.4 6.6 6.7 6.8 6.8 6.8 6.8 6.8 6.8 6.8 6.6 6.6 6.8 7.1
8.1 7.4 7.5 7.1 6.9 7.3 7.6 7.2 6.1 6.7 6.3 6.0 5.8 5.9 5.9 5.3 5.5 5.2 6.0 6.0 5.9 5.4 5.7 7.1 6.8 6.5 6.8 6.7 6.9 6.9 6.9 7.0 6.8 6.7 6.4 6.6 6.6 6.9
8.3 8.1 7.7 7.8 6.9 7.3 6.7 5.9 5.7 5.9 5.1 5.3 5.2 5.3 4.8 5.0 5.9 5.4 5.8 5.6 5.3 5.2 5.8 5.8 6.7 7.3 7.0 6.8 6.9 7.1 7.0 6.9 6.7 6.6 6.4 6.4 6.5 6.5
8.3 8.4 8.0 7.6 7.3 7.3 7.3 6.9 6.2 6.0 5.8 5.2 5.1 5.0 5.0 5.9 5.7 5.5 5.6 5.5 5.2 5.3 5.8 5.9 6.2 6.4 6.5 6.4 5.9 6.6 6.9 6.8 6.7 6.5 6.5 6.4 6.4 6.3
7.6 7.3 7.3 7.1 6.8 6.9 7.2 7.2 6.8 6.2 6.7 5.5 5.3 5.5 6.0 5.9 5.7 5.6 5.4 5.3 5.4 5.5 5.9 6.0 6.2 6.4 6.5 6.6 6.4 6.3 6.7 6.8 6.8 6.6 6.4 6.4 6.2 6.2
6.4 5.4 5.9 6.2 6.1 6.7 6.8 6.8 7.1 5.9 6.5 5.2 5.4 5.5 5.1 5.5 5.7 5.7 5.2 5.1 5.4 5.6 6.0 5.9 6.2 6.5 6.4 6.5 6.4 6.5 6.7 6.9 6.6 6.4 6.3 6.4 6.2 6.1
5.0 5.0 5.5 5.6 5.1 6.2 6.9 7.0 7.3 6.8 6.9 5.3 5.9 5.8 6.1 5.7 5.6 5.3 5.5 5.2 5.5 5.6 5.8 5.8 6.2 6.4 6.4 6.4 6.3 6.4 6.6 6.6 6.3 6.4 6.4 6.4 6.1 5.8
4.6 4.2 4.5 5.2 4.9 4.4 5.9 6.0 6.1 6.8 6.1 5.7 6.0 5.9 5.7 5.8 5.6 5.2 5.3 5.2 5.4 6.0 5.7 5.9 5.9 6.3 6.4 6.2 6.4 6.4 6.3 6.5 6.3 6.2 6.0 6.1 6.0 5.9
Wind_Speed
9 8 7 6 5 5 4 4 5 5 5 7 4 6 4 9 9 8 9 17 15 14 13 12 13 13 13 13 14 13 13 14 14 14 14 15 15 16
9 10 8 8 6 5 5 5 5 5 6 4 5 5 6 5 13 8 8 16 15 14 14 12 14 14 12 11 12 12 11 10 10 10 11 12 12 13
10 9 10 9 8 7 6 7 6 5 6 5 2 6 5 4 5 7 10 11 13 20 17 14 12 12 13 13 12 11 9 8 8 7 6 8 9 10
13 11 11 10 9 7 7 7 7 5 6 5 5 5 7 9 7 6 10 16 14 19 14 12 12 13 14 13 11 10 11 8 8 11 12 10 9 9
14 14 13 12 11 11 10 8 9 6 6 7 6 7 6 8 7 6 7 10 13 14 21 17 14 11 9 10 12 13 12 10 10 9 11 9 9 9
17 16 15 15 14 12 10 10 7 8 8 8 8 7 7 7 6 6 6 8 7 8 14 11 14 15 19 20 20 19 15 11 10 9 9 11 12 12
17 16 15 15 15 13 11 11 11 10 9 10 9 9 8 5 7 6 6 4 6 7 4 3 8 12 17 27 19 18 14 9 9 10 10 11 13 15
16 15 14 15 16 17 16 11 14 11 12 9 9 9 7 4 5 7 6 5 3 3 5 5 9 4 11 7 10 7 11 7 6 8 11 13 13 13
17 15 15 14 17 17 17 17 11 13 13 11 10 9 4 5 6 3 6 6 6 2 2 6 7 8 9 15 19 18 12 4 2 5 8 12 13 12
19 19 18 18 18 19 17 17 17 14 14 11 10 10 9 6 4 5 5 5 6 8 6 6 7 6 6 4 15 12 8 5 7 11 11 13 13 13
18 19 19 19 18 23 19 17 17 16 17 21 12 8 7 9 8 5 7 8 7 8 4 7 4 5 5 6 3 14 13 12 13 16 18 16 14 12
19 20 21 21 18 25 20 18 17 16 16 15 10 8 11 9 13 10 8 8 7 7 2 6 4 4 6 6 4 11 11 17 18 23 26 22 17 10
16 17 17 24 21 27 27 19 20 15 16 13 11 9 11 12 8 10 11 7 8 8 3 3 4 5 6 7 7 6 8 7 9 10 21 26 19 15
19 16 16 20 20 25 23 15 10 14 12 11 10 10 9 9 9 7 11 10 9 2 6 1 2 5 6 7 9 6 5 8 8 7 11 10 14 24
17 13 20 25 25 17 16 10 13 11 12 10 10 9 8 10 7 8 10 8 7 6 7 6 4 4 5 8 8 8 7 7 7 6 7 6 7 9
23 12 3 14 18 21 14 9 10 10 11 11 10 8 5 3 9 9 9 9 8 9 14 14 11 6 6 7 7 8 8 8 7 6 6 8 12 12
12 7 4 7 11 10 11 14 9 11 9 8 8 8 6 8 9 10 10 10 10 9 9 9 12 9 6 6 7 8 8 8 7 6 7 8 8 9
10 10 12 14 14 15 14 14 14 14 11 8 8 9 9 10 11 10 9 8 8 9 7 6 9 8 8 13 19 9 7 7 6 7 8 8 9 8
13 15 15 15 15 16 16 15 15 14 12 13 12 12 12 11 11 10 9 8 8 8 7 6 6 7 8 8 4 25 6 6 7 8 8 8 9 9
16 16 17 16 16 17 17 16 15 14 15 15 15 15 13 12 12 10 10 9 9 8 8 7 7 8 8 8 7 5 18 7 7 7 8 9 9 17
15 15 16 18 18 18 18 16 16 15 15 14 13 12 11 11 10 11 10 8 8 9 8 8 7 3 3 2 7 9 5 25 11 5 7 9 10 10
8 8 10 16 23 23 17 13 13 15 16 14 13 12 11 11 11 11 11 10 8 8 8 6 8 6 5 8 9 9 8 3 18 24 22 15 6 10
3 5 6 7 7 7 11 11 13 13 14 13 11 11 10 10 9 9 10 10 9 9 9 9 8 7 8 9 9 8 10 9 6 7 7 12 17 20
Wind_Direction
206 214 240 249 220 224 221 247 274 277 203 166 239 165 224 185 197 211 232 197 198 215 226 242 254 259 261 259 256 257 262 265 267 269 271 275 277 278
220 192 212 242 223 221 232 230 246 271 292 129 201 156 190 223 161 208 221 165 197 215 223 234 250 260 265 268 265 267 272 269 277 286 286 283 281 282
225 212 193 241 251 210 219 233 236 236 260 275 189 133 148 240 157 202 218 225 232 214 216 225 248 274 286 279 272 269 267 281 292 297 299 298 301 305
214 219 207 208 229 258 225 220 232 227 242 241 295 166 200 193 224 235 245 255 246 196 205 227 243 265 270 272 274 283 293 295 306 310 309 306 298 291
212 211 212 205 204 221 222 220 219 227 212 248 252 218 227 202 200 230 234 236 267 191 201 221 240 246 256 254 256 259 260 267 291 305 307 310 313 311
211 212 206 205 207 203 221 221 241 221 214 233 234 244 228 214 210 237 210 227 246 256 198 220 206 217 229 237 239 241 238 263 268 267 280 296 299 296
214 211 211 205 195 203 208 208 211 217 232 214 227 240 242 227 195 217 233 235 199 224 258 257 213 201 227 238 237 239 233 240 254 273 274 277 285 288
223 214 216 188 189 195 206 220 205 205 218 235 233 232 236 214 244 255 268 274 250 219 218 259 264 246 256 163 183 190 182 195 246 279 298 300 297 278
216 215 208 209 194 201 209 219 223 211 217 221 248 251 242 206 231 252 269 280 269 241 220 287 289 301 311 131 154 162 169 173 295 288 287 285 287 285
215 215 214 214 193 196 204 215 220 216 215 220 228 234 239 240 199 231 253 261 269 250 240 244 263 289 305 322 161 154 149 189 231 266 263 262 265 275
219 215 215 215 194 184 199 206 209 216 203 208 228 211 173 165 203 210 219 230 243 252 176 224 253 284 292 287 223 170 192 213 231 247 252 252 248 253
221 220 208 214 187 179 196 203 203 206 204 192 193 175 174 168 162 205 229 236 233 230 182 235 228 276 286 277 271 207 236 230 232 240 245 243 240 245
219 221 219 199 182 182 193 203 205 190 190 191 192 201 206 216 197 210 222 247 255 254 111 203 235 265 274 282 285 289 287 291 285 274 245 248 242 227
221 222 217 185 182 188 192 201 169 176 184 186 182 196 201 208 184 185 214 224 256 290 130 140 233 264 284 287 282 289 292 299 300 291 294 295 222 231
236 227 208 173 175 182 190 146 157 189 190 187 190 197 192 174 164 157 181 199 228 220 205 191 241 267 265 265 281 288 297 293 300 292 300 298 309 319
231 244 204 178 177 172 156 164 211 189 198 186 191 177 165 211 143 165 191 198 213 218 209 190 198 203 246 262 276 282 291 295 294 294 325 314 302 301
211 227 173 205 165 169 166 167 210 199 188 177 177 172 180 175 160 181 199 205 211 224 189 191 198 214 232 262 270 269 272 279 292 318 320 303 298 292
192 203 197 181 180 173 179 187 191 179 192 167 175 183 183 188 175 199 201 212 218 220 224 224 170 210 225 221 223 247 266 281 303 315 293 293 305 313
201 205 206 200 192 185 176 184 185 170 187 179 195 192 192 184 184 193 193 202 223 227 228 233 222 234 252 269 334 213 269 292 304 298 307 315 309 312
214 212 209 200 191 183 178 181 180 180 182 203 196 189 181 187 182 199 192 202 213 220 219 215 218 233 240 261 297 316 213 251 269 296 309 311 300 298
240 239 212 200 192 180 177 178 180 183 176 199 186 179 186 182 183 187 203 221 204 209 215 224 230 114 249 316 274 260 246 212 232 264 296 299 306 312
247 292 267 242 183 166 170 181 183 184 161 188 179 180 177 183 187 190 195 195 201 217 222 228 149 191 228 239 254 270 266 270 217 236 246 248 302 312
32 75 54 51 32 64 124 172 174 165 169 179 173 170 176 176 186 186 195 206 203 189 218 221 219 209 229 241 254 277 275 256 281 303 309 193 223 238